Погода в Весёлом

Россия / Орловская область     52°26′29″N   36°04′15″E
темп.,
°C
ветер,
м/с
пор.,
м/с
влажн.,
%
обл.,
%
осадки,
мм/ч
давл.,
гПа
погр.,
м
14 мая, пт
пт1400:00+9юв338355 0.0 101538
03:00+9юв358798 0.0 101567
06:00+10вюв489597 0.0 1014175
09:00+15вюв5886100 0.1 1013381
12:00+18юв7128398 3.0 1011716
15:00+21ююв71276100 6.3 10101309
18:00+19ююв6128197 1.4 1009594
21:00+16ююв51490100 2.9 1009367
15 мая, сб
сб1500:00+14ююв3595100 0.6 100985
03:00+13ю3392100 0.6 100936
06:00+13ю359193 0.0 1010107
09:00+17ююз58796 0.0 1010469
12:00+20ююз68645 0.1 10101391
15:00+19ююз79665 0.8 10111457
18:00+18ююз59768 0.6 1011932
21:00+14ююз499227 0.7 1012180
16 мая, вс
вс1600:00+12ююз36922 0.0 101296
03:00+11ююз359360 0.0 101388
06:00+12юз249027 0.0 1014102
09:00+14юз238178 0.0 1015213
12:00+19ююз23630 0.0 1014946
15:00+22ююз355721 0.0 10141697
18:00+21з126691 0.0 1013388
21:00+16ссв337967 0.0 101325
17 мая, пн
пн1700:00+14св478593 0.0 1012116
03:00+15всв498026 0.0 1011199
06:00+15всв4109298 0.0 1010210
09:00+20вюв6107339 0.0 1009431
12:00+24юв7115691 0.0 1008889
15:00+24юв7146189 0.0 10071440
18:00+22юв6136864 0.0 1006584
21:00+17ююв41086100 0.0 1007184
18 мая, вт
вт1800:00+16ююз339220 0.0 100752
03:00+15с1297100 2.1 100746
06:00+15зсз2499100 2.8 1008194
09:00+15зсз3396100 3.8 1008295
12:00+16з459599 3.6 1009391
15:00+19з457397 3.8 10101105
18:00+18з248163 0.4 1010277
21:00+14з33902 0.8 101240